Find Starlink 35547

NORAD ID: 66119 Int'l Des: 2025-237 Owner: SPXS Country: US Constellation: starlink operational
LEOCIRCULAR

現在のビュー

3D地球を読み込み中...

About Starlink 35547

Starlink 35547 (NORAD 66119) is a starlink constellation satellite (v2 mini) launched Oct 22, 2025 by SPXS of US. It operates in LEO, CIRCULAR orbit with a mass of 575.00 kg.

次回通過

Passes for default location (London). Set your location on the main map for personalized predictions.

高度履歴

Loading altitude history...

軌道要素

1 66119U 25237F 26262.43771344 .00029134 00000-0 86971-3 0 9996
2 66119 53.1579 216.8892 0001336 87.1509 272.9646 15.34412307 52311
Epoch: Sep 19, 2026 • Age: 35 hours

現在のステータス

高度 462.5 km
遠地点 / 近地点 N/A
速度 7.64 km/s
衛星直下点 20.98°N, 50.25°E
打ち上げ日 Oct 22, 2025
運用期間 0.9 years
タイプ internet

技術仕様

分類 Payload
質量 575.00 kg
乾燥質量 530.00 kg
長さ 0.30 m
スパン 29.00 m
形状 ? Box + pan
製造者 SPXS
バスタイプ Starlink V2MO
フェーズステータス In Orbit
所有者/国 SPXS/US

Most Searched